[[{"header":{"parameterUnit":"m.s-1","parameterCategory":1,"la1":30.2991,"la2":30.254,"lo1":-89.0895,"lo2":-89.0444,"dy":0.0017,"dx":0.0017,"nx":28,"ny":28,"refTime":"2025-05-23T03:00:00:Z","depth":0,"parameterNumber":2,"parameterNumberName":"U-component_of_WINDS"},"data":[0,0,0,0,0,0,0,0,0,0,0,0,0,0,0,0,0,0,0,0,0,0,0,0,0,0,0,0,0,0,0,0,0,0,0,0,0,0,0,0,0,0,0,0,0,0,0,0,0,0,0,0,0,0,0,0,0,0,1.316,1.3161,0,1.3213,1.3214,1.3215,1.3205,1.3204,1.3203,1.3202,1.3257,1.3259,1.3262,0,0,0,0,0,0,0,0,0,0,0,0,0,1.3051,1.3053,1.316,1.3161,1.3162,1.3213,1.3214,1.3215,1.3205,1.3204,1.3203,1.3201,1.3256,1.3259,1.3262,0,0,0,0,0,0,0,0,0,0,0,0,0,1.3101,1.3054,1.316,1.3163,1.3164,1.3213,1.3214,1.3215,1.3205,1.3204,1.3202,1.3201,1.3255,1.3259,1.3262,1.3313,0,0,1.3273,1.3275,0,0,0,0,0,0,0,0,1.3098,1.3105,1.3162,1.3163,1.3164,1.3201,1.3196,1.3248,1.3205,1.3189,1.3202,1.32,1.324,1.3244,1.3257,1.3315,1.3318,1.3273,1.3276,1.3277,1.3278,0,0,0,0,0,0,0,1.3094,1.3102,1.3181,1.3163,1.3164,1.3162,1.3167,1.3205,1.3222,1.3191,1.319,1.3196,1.324,1.3254,1.3259,1.3318,1.3273,1.3276,1.3279,1.328,1.342,1.3422,0,0,0,0,0,0,1.309,1.31,1.318,1.3183,1.3127,1.3165,1.3171,1.319,1.3221,1.3225,1.3198,1.3196,1.3249,1.3255,1.3261,1.3322,1.3277,1.328,1.3282,1.3419,1.3421,1.3422,0,0,0,0,0,0,1.3088,1.3097,1.3177,1.3141,1.3151,1.3168,1.319,1.3192,1.3206,1.3227,1.323,1.3209,1.3248,1.3256,1.33,1.3323,1.3282,1.3285,1.3417,1.3419,1.3422,1.3444,0,0,0,0,0,0,1.3085,1.3096,1.3116,1.3142,1.3153,1.3215,1.3192,1.3194,1.3212,1.3211,1.3238,1.3241,1.3247,1.3295,1.3303,1.3327,1.3288,1.3415,1.3418,1.3421,1.3441,1.3447,1.3452,0,0,0,0,0,1.3081,1.312,1.3117,1.3126,1.3177,1.3217,1.3223,1.3229,1.3214,1.3234,1.3247,1.3241,1.3319,1.3299,1.3309,1.3334,1.3413,1.3417,1.3421,1.3439,1.3446,1.3451,0,0,0,0,0,0,1.3096,1.3123,1.312,1.3169,1.319,1.3215,1.324,1.3236,1.3263,1.326,1.3266,1.3273,1.3318,1.3331,1.3307,1.3385,1.3364,1.337,1.3375,1.3382,1.3387,1.3383,1.3291,0,0,0,0,0,1.3105,1.3135,1.3157,1.3198,1.3209,1.3223,1.324,1.3243,1.3266,1.3275,1.3291,1.3314,1.3344,1.3363,1.3392,1.3443,1.3449,1.3466,1.3471,1.3475,1.348,1.3508,1.3515,1.3434,1.3434,1.3434,0,0,1.3124,1.3143,1.3161,1.3201,1.3219,1.325,1.323,1.3264,1.3287,1.328,1.3323,1.3335,1.3361,1.3409,1.3431,1.3421,1.3504,1.348,1.3483,1.3485,1.3512,1.352,1.3527,1.3437,1.3436,1.3436,0,0,1.3175,1.3192,1.3227,1.3245,1.3272,1.328,1.3289,1.3314,1.3323,1.3365,1.3361,1.3389,1.344,1.3459,1.3475,1.3533,1.3528,1.3542,1.3569,1.3596,1.3603,1.3609,1.3629,1.3637,1.3547,1.3547,1.3547,0,1.3195,1.3241,1.3246,1.328,1.3298,1.3294,1.333,1.3347,1.3382,1.3394,1.3383,1.3447,1.3464,1.3516,1.353,1.3544,1.3554,1.3539,1.3601,1.3607,1.3613,1.3632,1.364,1.3548,1.3548,1.3548,1.3548,0,1.3265,1.3297,1.3323,1.3356,1.3377,1.3412,1.3423,1.3443,1.3444,1.3454,1.3498,1.3519,1.3551,1.3564,1.3565,1.3617,1.361,1.36,1.3579,1.3622,1.364,1.3648,1.355,1.355,1.355,1.3549,0,0,1.3326,1.3362,1.3371,1.3386,1.3415,1.344,1.3476,1.3507,1.3525,1.3549,1.3579,1.3622,1.3613,1.3632,1.3635,1.3659,1.3704,1.3647,1.3647,1.3656,1.3762,1.3769,1.3777,1.3701,1.3702,1.3704,1.3759,0,1.3379,1.344,1.3446,1.3502,1.3531,1.3528,1.3558,1.3579,1.359,1.3617,1.3629,1.3659,1.3645,1.3657,1.368,1.3693,1.3725,1.3689,1.3729,1.373,1.3722,1.3787,1.3795,1.3846,1.3767,1.3768,1.3769,0,1.3449,1.3475,1.3533,1.3558,1.3571,1.3598,1.3628,1.3654,1.3678,1.3684,1.3704,1.3705,1.3741,1.3719,1.377,1.3745,1.3762,1.3771,1.3773,1.3777,1.3752,1.3792,1.3863,1.387,1.378,1.3779,1.3779,0,1.3487,1.3537,1.3578,1.3591,1.3622,1.3641,1.3655,1.3677,1.3696,1.3722,1.3735,1.3765,1.3781,1.3805,1.3813,1.3797,1.3863,1.3842,1.3869,1.3869,1.3883,1.3882,1.3957,1.3894,1.3894,1.3894,1.3894,0,1.3546,1.3581,1.3596,1.3621,1.3661,1.3668,1.3708,1.372,1.3741,1.3769,1.3767,1.3794,1.3803,1.3831,1.3838,1.3879,1.3887,1.3893,1.3894,1.3893,1.3892,1.3903,1.39,1.3896,1.3896,1.3895,1.3895,0,1.3595,1.3607,1.3651,1.3677,1.3684,1.3712,1.3734,1.3758,1.3769,1.3804,1.3813,1.3829,1.3862,1.3873,1.3912,1.3917,1.3964,1.3963,1.3956,1.3956,1.3983,1.398,1.4068,1.408,1.4009,1.401,1.401,0,1.3632,1.3659,1.3687,1.3706,1.372,1.375,1.3769,1.3777,1.3798,1.3827,1.3848,1.3881,1.3907,1.396,1.3976,1.4006,1.4005,1.4034,1.401,1.4008,1.4006,1.4004,1.4006,1.4038,1.4039,1.4039,1.404,0,1.3695,1.3699,1.3727,1.3757,1.378,1.3804,1.3827,1.3843,1.3854,1.3877,1.391,1.3931,1.3972,1.4004,1.4035,1.4049,1.4047,1.4047,1.4055,1.4054,1.4049,1.4052,1.3968,1.4045,1.4045,1.4044,1.4044,1.4044,1.3739,1.3763,1.3787,1.3818,1.3836,1.3858,1.3883,1.3896,1.3924,1.3958,1.3961,1.3997,1.4021,1.4062,1.4078,1.4107,1.4099,1.411,1.4113,1.4116,1.4118,1.4045,1.4113,1.4112,1.4112,1.4112,1.4112,0,1.3802,1.3817,1.3846,1.3878,1.3903,1.3898,1.3924,1.3945,1.3977,1.3999,1.4025,1.4064,1.4095,1.4113,1.4145,1.4164,1.4164,1.4172,1.4171,1.4174,1.4123,1.4113,1.4172,1.4172,1.4172,1.4172,1.4172,1.4172,1.3838,1.3879,1.3886,1.3936,1.3951,1.3986,1.4001,1.4021,1.4039,1.4083,1.4109,1.412,1.4141,1.4174,1.4203,1.4207,1.4219,1.4228,1.4232,1.4184,1.4178,1.4172,1.4162,1.4231,1.4231,1.4281,1.4281,1.4281]},{"header":{"parameterUnit":"m.s-1","parameterCategory":1,"la1":30.2991,"la2":30.254,"lo1":-89.0895,"lo2":-89.0444,"dy":0.0017,"dx":0.0017,"nx":28,"ny":28,"refTime":"2025-05-23T03:00:00:Z","depth":0,"parameterNumber":3,"parameterNumberName":"V-component_of_WINDS"},"data":[0,0,0,0,0,0,0,0,0,0,0,0,0,0,0,0,0,0,0,0,0,0,0,0,0,0,0,0,0,0,0,0,0,0,0,0,0,0,0,0,0,0,0,0,0,0,0,0,0,0,0,0,0,0,0,0,0,0,1.3667,1.3667,0,1.3715,1.3716,1.3716,1.371,1.3709,1.3709,1.3708,1.3757,1.3759,1.3762,0,0,0,0,0,0,0,0,0,0,0,0,0,1.3568,1.357,1.3667,1.3667,1.3668,1.3715,1.3716,1.3717,1.371,1.3709,1.3708,1.3707,1.3757,1.3759,1.3762,0,0,0,0,0,0,0,0,0,0,0,0,0,1.3613,1.357,1.3667,1.367,1.3671,1.3715,1.3716,1.3717,1.3711,1.3709,1.3708,1.3707,1.3756,1.3759,1.3762,1.3805,0,0,1.3772,1.3773,0,0,0,0,0,0,0,0,1.3611,1.3617,1.3669,1.367,1.3671,1.3705,1.3699,1.3746,1.3711,1.3696,1.3708,1.3706,1.3741,1.3745,1.3757,1.3807,1.381,1.3772,1.3774,1.3775,1.3776,0,0,0,0,0,0,0,1.3608,1.3615,1.3686,1.367,1.3671,1.367,1.3675,1.3708,1.3724,1.3697,1.3697,1.3702,1.3741,1.3754,1.3758,1.381,1.3772,1.3774,1.3776,1.3778,1.3899,1.39,0,0,0,0,0,0,1.3603,1.3612,1.3684,1.3687,1.3637,1.3672,1.3678,1.3696,1.3724,1.3727,1.3703,1.3702,1.3749,1.3755,1.376,1.3813,1.3775,1.3778,1.378,1.3897,1.3899,1.3901,0,0,0,0,0,0,1.3601,1.361,1.3682,1.365,1.3659,1.3675,1.3695,1.3697,1.371,1.3729,1.3732,1.3713,1.3749,1.3756,1.3794,1.3814,1.3779,1.3782,1.3896,1.3898,1.39,1.3919,0,0,0,0,0,0,1.3599,1.3609,1.3626,1.365,1.3661,1.3716,1.3696,1.3699,1.3715,1.3714,1.3739,1.3742,1.3748,1.379,1.3797,1.3818,1.3785,1.3894,1.3897,1.3899,1.3916,1.3921,1.3925,0,0,0,0,0,1.3595,1.3629,1.3627,1.3635,1.3682,1.3717,1.3723,1.3729,1.3717,1.3734,1.3746,1.3741,1.3811,1.3793,1.3802,1.3824,1.3893,1.3896,1.3899,1.3914,1.392,1.3925,0,0,0,0,0,0,1.3606,1.3632,1.363,1.3673,1.3693,1.3716,1.3737,1.3735,1.3759,1.3757,1.3764,1.3769,1.3808,1.382,1.38,1.3868,1.385,1.3855,1.3859,1.3864,1.3869,1.3866,1.3787,0,0,0,0,0,1.3614,1.3641,1.3662,1.3697,1.3707,1.3721,1.3736,1.3739,1.376,1.3769,1.3784,1.3804,1.3831,1.3848,1.3873,1.3918,1.3923,1.3937,1.3941,1.3945,1.3949,1.3974,1.3981,1.3911,1.3911,1.3911,0,0,1.363,1.3647,1.3663,1.37,1.3716,1.3743,1.3728,1.3757,1.3778,1.3773,1.3811,1.3823,1.3846,1.3887,1.3907,1.3898,1.397,1.3949,1.3952,1.3954,1.3978,1.3985,1.3991,1.3913,1.3912,1.3912,0,0,1.3673,1.3688,1.372,1.3736,1.3761,1.3769,1.3777,1.3801,1.3808,1.3846,1.3843,1.3867,1.3913,1.393,1.3944,1.3994,1.399,1.4001,1.4025,1.4049,1.4055,1.406,1.4078,1.4084,1.4006,1.4006,1.4006,0,1.369,1.3731,1.3737,1.3767,1.3783,1.378,1.3813,1.3828,1.3859,1.3871,1.3861,1.3918,1.3934,1.3979,1.3992,1.4003,1.4012,1.3999,1.4053,1.4058,1.4063,1.4081,1.4088,1.4007,1.4007,1.4007,1.4007,0,1.3751,1.3779,1.3802,1.3833,1.3851,1.3883,1.3893,1.3911,1.3913,1.3923,1.3961,1.3979,1.4009,1.402,1.4021,1.4066,1.406,1.4052,1.4035,1.4071,1.4088,1.4094,1.4009,1.4008,1.4008,1.4008,0,0,1.3803,1.3836,1.3845,1.3859,1.3885,1.3908,1.3939,1.3967,1.3983,1.4005,1.4031,1.4069,1.4062,1.4079,1.4082,1.4103,1.4142,1.4092,1.4093,1.4101,1.4193,1.42,1.4207,1.4139,1.4141,1.4142,1.4191,0,1.3849,1.3904,1.391,1.396,1.3987,1.3984,1.4011,1.403,1.404,1.4064,1.4075,1.4102,1.409,1.41,1.412,1.4133,1.416,1.4129,1.4165,1.4166,1.416,1.4216,1.4223,1.4269,1.4198,1.4199,1.42,0,1.3911,1.3935,1.3987,1.401,1.4021,1.4045,1.4073,1.4096,1.4117,1.4123,1.4141,1.4142,1.4174,1.4155,1.4199,1.4178,1.4193,1.4201,1.4203,1.4207,1.4186,1.4223,1.4284,1.4291,1.421,1.4209,1.4208,0,1.3945,1.399,1.4027,1.4039,1.4066,1.4084,1.4096,1.4116,1.4133,1.4157,1.4168,1.4195,1.421,1.423,1.4238,1.4223,1.4283,1.4264,1.4289,1.4288,1.4302,1.4301,1.4367,1.431,1.431,1.431,1.4309,0,1.3997,1.4029,1.4042,1.4065,1.4101,1.4108,1.4143,1.4155,1.4173,1.4198,1.4197,1.4221,1.4229,1.4254,1.426,1.4297,1.4303,1.4309,1.431,1.431,1.4309,1.432,1.4317,1.4311,1.4311,1.4311,1.431,0,1.4041,1.4051,1.4092,1.4115,1.4121,1.4147,1.4166,1.4189,1.4198,1.423,1.4238,1.4252,1.4282,1.4291,1.4327,1.4331,1.4373,1.4372,1.4366,1.4367,1.4391,1.4389,1.4468,1.4479,1.4413,1.4414,1.4414,0,1.4074,1.4099,1.4124,1.4141,1.4154,1.4181,1.4199,1.4206,1.4224,1.4251,1.427,1.4299,1.4323,1.437,1.4384,1.4411,1.441,1.4436,1.4414,1.4413,1.4412,1.4411,1.4414,1.444,1.4441,1.4441,1.4442,0,1.4131,1.4135,1.416,1.4188,1.4209,1.423,1.4251,1.4265,1.4275,1.4296,1.4326,1.4345,1.4381,1.441,1.4438,1.445,1.4448,1.4448,1.4456,1.4456,1.4452,1.4455,1.4378,1.4447,1.4446,1.4446,1.4446,1.4446,1.4171,1.4194,1.4215,1.4244,1.426,1.428,1.4302,1.4314,1.4339,1.437,1.4372,1.4405,1.4426,1.4463,1.4477,1.4503,1.4496,1.4506,1.4509,1.4512,1.4514,1.4447,1.4508,1.4508,1.4508,1.4508,1.4507,0,1.423,1.4243,1.4269,1.4299,1.4321,1.4317,1.434,1.4359,1.4388,1.4408,1.4431,1.4466,1.4495,1.451,1.4539,1.4556,1.4556,1.4564,1.4563,1.4566,1.4519,1.451,1.4563,1.4563,1.4563,1.4563,1.4563,1.4563,1.4263,1.43,1.4307,1.4352,1.4366,1.4398,1.4412,1.443,1.4446,1.4485,1.4509,1.4519,1.4537,1.4567,1.4593,1.4597,1.4608,1.4616,1.4619,1.4575,1.4569,1.4564,1.4556,1.4618,1.4618,1.4665,1.4665,1.4666]}]]